SVR1285 USSS-USPP

Flight info

Callsign SVR1285
Flight time N/A
Altitude 28000
Route LUNAG6K LUNAG T449 INPIL INPIL1E
Aircraft A320/M-SDE3FGHIRWY/LB1

Departure

Time 2026-05-01 11:34
Airport Koltsovo Airport (USSS)

Arrival

Time N/A
Airport Perm International Airport (USPP)
Time Latitude Longitude Altitude Speed Heading
2026-05-01 11:01 56.74916 60.81427 763 ft 0 kts
2026-05-01 11:23 56.74907 60.81426 763 ft 2 kts 359°
2026-05-01 11:23 56.74892 60.81427 763 ft 2 kts 360°
2026-05-01 11:23 56.74877 60.81427 763 ft 1 kts 11°
2026-05-01 11:23 56.74866 60.81414 762 ft 2 kts 56°
2026-05-01 11:24 56.74862 60.81401 762 ft 2 kts 74°
2026-05-01 11:24 56.74860 60.81381 761 ft 2 kts 89°
2026-05-01 11:24 56.74861 60.81342 761 ft 1 kts 89°
2026-05-01 11:25 56.74861 60.81339 761 ft 0 kts 89°
2026-05-01 11:27 56.74860 60.81342 761 ft 0 kts 89°
2026-05-01 11:27 56.74860 60.81350 761 ft 0 kts 89°
2026-05-01 11:28 56.74861 60.81384 762 ft 4 kts 89°
2026-05-01 11:28 56.74861 60.81465 763 ft 8 kts 90°
2026-05-01 11:28 56.74860 60.81602 764 ft 13 kts 91°
2026-05-01 11:29 56.74833 60.81938 767 ft 16 kts 116°
2026-05-01 11:29 56.74776 60.82143 765 ft 17 kts 117°
2026-05-01 11:29 56.74597 60.82208 762 ft 0 kts 181°
2026-05-01 11:31 56.74594 60.82208 762 ft 2 kts 181°
2026-05-01 11:31 56.74551 60.82207 761 ft 10 kts 181°
2026-05-01 11:31 56.74455 60.82205 759 ft 17 kts 180°
2026-05-01 11:31 56.74318 60.82189 757 ft 22 kts 185°
2026-05-01 11:32 56.74203 60.82173 754 ft 13 kts 184°
2026-05-01 11:32 56.74184 60.82171 754 ft 0 kts 184°
2026-05-01 11:33 56.74172 60.82169 753 ft 5 kts 184°
2026-05-01 11:33 56.74110 60.82161 753 ft 12 kts 185°
2026-05-01 11:33 56.74065 60.82068 753 ft 6 kts 275°
2026-05-01 11:33 56.74069 60.81981 753 ft 19 kts 275°
2026-05-01 11:34 56.74104 60.81191 747 ft 111 kts 274°
2026-05-01 11:34 56.74189 60.79501 1053 ft 154 kts 279°
2026-05-01 11:34 56.74247 60.77470 1523 ft 186 kts 276°
2026-05-01 11:34 56.74267 60.75201 2334 ft 201 kts 277°
2026-05-01 11:35 56.74297 60.72666 3091 ft 223 kts 277°
2026-05-01 11:35 56.74334 60.69864 3968 ft 241 kts 278°
2026-05-01 11:35 56.74376 60.66872 4828 ft 260 kts 277°
2026-05-01 11:35 56.74415 60.63652 5881 ft 270 kts 277°
2026-05-01 11:36 56.74441 60.60406 7071 ft 275 kts 276°
2026-05-01 11:36 56.74470 60.57026 8246 ft 280 kts 276°
2026-05-01 11:36 56.74551 60.53572 9365 ft 283 kts 278°
2026-05-01 11:36 56.74771 60.50101 10452 ft 286 kts 283°
2026-05-01 11:37 56.75143 60.46537 11227 ft 299 kts 285°
2026-05-01 11:37 56.75575 60.42822 11984 ft 311 kts 285°
2026-05-01 11:37 56.75998 60.39217 12519 ft 314 kts 285°
2026-05-01 11:37 56.76223 60.37288 12712 ft 316 kts 285°
2026-05-01 11:38 56.76671 60.33405 12870 ft 317 kts 284°
2026-05-01 11:38 56.77069 60.29910 12850 ft 317 kts 284°
2026-05-01 11:39 56.77933 60.22280 12853 ft 318 kts 284°
2026-05-01 11:39 56.78411 60.18052 13189 ft 331 kts 284°
2026-05-01 11:39 56.78692 60.15509 13783 ft 334 kts 283°
2026-05-01 11:40 56.78930 60.12731 14655 ft 331 kts 280°
2026-05-01 11:40 56.79211 60.08544 15741 ft 333 kts 278°
2026-05-01 11:40 56.79484 60.04052 16734 ft 338 kts 277°
2026-05-01 11:41 56.80016 59.95267 18541 ft 348 kts 275°
2026-05-01 11:41 56.80526 59.86618 20240 ft 357 kts 275°
2026-05-01 11:41 56.80835 59.81353 21243 ft 362 kts 274°